GAOFEN-13 02

Last updated on Fri Dec 19 2025 00:02:54 GMT+0000 (Coordinated Universal Time)

1 55912U 23036A 25352.58333478 -.00000194 00000+0 00000+0 0 9997 2 55912 1.0818 338.7495 0004304 331.9033 134.9461 1.00268579 10281
UTC large
Height (km)
Speed (km/s)
/
Latitude / Longitude
Inclination (degrees)
Orbital Period (minutes)
Azimuth
Elevation
Range (km)
Doppler Factor

Next 0 passes for location: London (51.5072 / 0.1276)

Sorry there are no passes over London.